THOR ABLESTAR DEB, 210

Orbit data source: Space-Track

THOR ABLESTAR DEB, 210 is space debris in LEO originally from a launch on Thu, 29 Jun 1961 UTC launched from the Air Force Eastern Test Range (AFETR). Debris objects in space refer to the collection of defunct objects orbiting the Earth. Examples of debris include non-operational satellites, rocket bodies, and fragments generated from explosions, collisions, or faulty payload assembly.

Loading next visibility...
Identifier
210, 1961-015BE
Orbit
LEO
Country
Flag of USUS
Related business
Manufacturer
Unknown
Mission
Spacecraft
Bus & Motor
Unknown
Mass
Unknown
Launch date (UTC)
1961-06-29 (65 years ago)
Launch vehicle
Unknown
Launch site
Air Force Eastern Test Range (AFETR)
Object type
Payload
Rocket body
Debris
Shape & HBR
Unknown shape, 0.2 m
Radar Cross Section
Medium (>0.1 m² and <1 m²)

Expand to show TLE details & history
Last TLE update: 8 hours ago

TLE from 8 hours ago
0 THOR ABLESTAR DEB
1   210U 61015BE  26162.80584097  .00000363  00000-0  36029-3 0  9999
2   210  66.4578  18.8293 0051642 311.7678  47.8989 13.89083046264653
Epoch: 2026-06-11T19:20Z
TLE epoch observation values (Epoch: 2026-06-11T19:20:24.659Z)
Latitude
-0°
Longitude
-171.41781°
Altitude
908.69 km
Speed
7.411 km/s
True Right ascension
01h 15m 19s
True Declination
0° 00' 00"
Sunlit
Object was in daylight at epoch
Visualization orbit readout
Latitude
Unknown
Longitude
Unknown
Altitude
Unknown
Speed
Unknown
Apparent Right ascension
Unknown
Apparent Declination
Unknown
Sunlit
N/A
Visualization observer readout
Local Sidereal Time
13:28:31
Azimuth
Unknown
Elevation
Unknown
Doppler factor
Unknown
Orbital elements
Apogee altitude
968.022 km
Perigee altitude
892.538 km
Semi-major axis
7,308.417 km
Eccentricity
0.00516
Inclination
66.4578°
RAAN
18.8293°
Arg. of periapsis
311.7678°
True anomaly
48.33988°
Mean anomaly
47.8989°
Eccentric anomaly
48.1192°
Mean motion
3.47383 °/min
Orbital period
103.63 mins
BSTAR
0.00036029
Loading maneuver chart data...
Computing Atmospheric mass density...

Documentation

Showing up to 5 results
|